Hourly Data Report for October 14, 2020

MUSKOKA
ONTARIO
Current Station Operator: NAVCAN

44°58'29.000" N
79°18'12.000" W
281.90 m
6115529
71532
YQA

Download Data

Hourly Data (October 2020)
Hourly Data Report for October 14, 2020
TIME
LST
Temp Definition
°C
Dew Point Definition
°C
Rel Hum Definition
%
Precip. Amount Definition
mm

Wind Dir Definition
10's deg

Wind Spd Definition
km/h
Visibility Definition
km
Stn Press Definition
kPa
Hmdx Definition


Wind Chill Definition


Weather Definition


00:00 7.9 7.3 96 0.0 12 8 16.1 97.74     LegendNANA
01:00 7.6 7.2 97 0.0 23 5 16.1 97.78     LegendNANA
02:00 6.0 5.6 97 0.0   0 12.9 97.78     LegendNANA
03:00 6.7 6.7 100 0.0 28 5 12.9 97.80     LegendNANA
04:00 7.4 6.7 95 0.0 29 9 16.1 97.82     LegendNANA
05:00 6.8 5.9 94 0.0 29 8 16.1 97.87     LegendNANA
06:00 2.2 2.1 99 0.0   0 1.2 97.88     Fog
07:00 0.8 0.7 99 0.0 16 4 16.1 97.96     LegendNANA
08:00 4.4 4.3 99 0.0   0 11.3 97.99     LegendNANA
09:00 10.5 7.7 83 0.0 21 11 16.1 98.03     LegendNANA
10:00 12.0 6.9 71 0.0 25 15 16.1 98.08     LegendNANA
11:00 13.3 4.8 56 0.0 26 18 16.1 98.05     LegendNANA
12:00 14.9 3.5 46 0.0 23 21 16.1 98.02     LegendNANA
13:00 14.7 2.8 45 0.0 22 18 16.1 97.95     LegendNANA
14:00 14.9 2.1 42 0.0 22 22 16.1 97.90     LegendNANA
15:00 14.6 2.9 45 0.0 22 18 16.1 97.88     LegendNANA
16:00 14.5 3.4 47 0.0 24 13 16.1 97.81     LegendNANA
17:00 12.1 4.2 58 0.0 16 8 16.1 97.73     LegendNANA
18:00 10.9 5.0 67 0.0   0 16.1 97.73     LegendNANA
19:00 11.3 3.7 59 0.0 15 9 16.1 97.58     LegendNANA
20:00 11.0 3.1 58 0.0 14 17 16.1 97.50     LegendNANA
21:00 10.5 3.0 60 0.0 14 17 16.1 97.45     LegendNANA
22:00 10.5 3.3 61 0.0 14 24 16.1 97.34     LegendNANA
23:00 10.9 2.6 56 0.0 13 24 16.1 97.18     LegendNANA

Notes on Data Quality.

Legend

  • E = Estimated
  • M = Missing
  • NA = Not Available*
  • [empty] = Indicates an unobserved value
Date modified: